Hourly Weather Ruiz

Today, 15 April, Thursday

Time Temperature Precipitation Wind Pressure Humidity
00:00 +21°C° 0 mm 1 mps 757 mmHg 73%
01:00 +21°C° 0 mm 1 mps 756 mmHg 73%
02:00 +21°C° 0 mm 1 mps 756 mmHg 72%
03:00 +20°C° 0 mm 1 mps 756 mmHg 71%
04:00 +20°C° 0 mm 1 mps 756 mmHg 70%
05:00 +20°C° 0 mm 1 mps 756 mmHg 68%
06:00 +23°C° 0 mm 1 mps 756 mmHg 58%
07:00 +26°C° 0 mm 1 mps 757 mmHg 48%
08:00 +29°C° 0 mm 1 mps 757 mmHg 38%
09:00 +31°C° 0 mm 1 mps 757 mmHg 31%
10:00 +35°C° 0 mm 2 mps 756 mmHg 25%
11:00 +38°C° 0 mm 3 mps 756 mmHg 19%
12:00 +38°C° 0 mm 3 mps 755 mmHg 19%
13:00 +38°C° 0 mm 4 mps 754 mmHg 19%
14:00 +39°C° 0 mm 5 mps 754 mmHg 18%
15:00 +37°C° 0 mm 4 mps 754 mmHg 22%
16:00 +35°C° 0 mm 4 mps 754 mmHg 25%
17:00 +33°C° 0 mm 4 mps 754 mmHg 28%
18:00 +29°C° 0 mm 3 mps 755 mmHg 40%
19:00 +26°C° 0 mm 2 mps 755 mmHg 52%
20:00 +23°C° 0 mm 1 mps 756 mmHg 64%
21:00 +23°C° 0 mm 1 mps 756 mmHg 66%
22:00 +22°C° 0 mm 1 mps 756 mmHg 67%
23:00 +22°C° 0 mm 1 mps 756 mmHg 69%

Tomorrow, 16 April, Friday

Time Temperature Precipitation Wind Pressure Humidity
00:00 +21°C° 0 mm 1 mps 756 mmHg 68%
01:00 +21°C° 0 mm 1 mps 755 mmHg 67%
02:00 +21°C° 0 mm 1 mps 755 mmHg 66%
03:00 +20°C° 0 mm 1 mps 755 mmHg 63%
04:00 +20°C° 0 mm 1 mps 755 mmHg 60%
05:00 +20°C° 0 mm 1 mps 754 mmHg 57%
06:00 +23°C° 0 mm 1 mps 755 mmHg 48%
07:00 +26°C° 0 mm 1 mps 755 mmHg 39%
08:00 +27°C° 0 mm 0 mps 755 mmHg 31%
09:00 +31°C° 0 mm 1 mps 755 mmHg 27%
10:00 +35°C° 0 mm 2 mps 754 mmHg 23%
11:00 +37°C° 0 mm 3 mps 754 mmHg 19%
12:00 +37°C° 0 mm 4 mps 754 mmHg 20%
13:00 +37°C° 0 mm 4 mps 753 mmHg 21%
14:00 +37°C° 0 mm 5 mps 753 mmHg 22%
15:00 +36°C° 0 mm 4 mps 753 mmHg 25%
16:00 +34°C° 0 mm 4 mps 753 mmHg 28%
17:00 +33°C° 0 mm 3 mps 753 mmHg 31%
18:00 +29°C° 0 mm 2 mps 754 mmHg 43%
19:00 +26°C° 0 mm 1 mps 755 mmHg 55%
20:00 +21°C° 0 mm 0 mps 756 mmHg 67%
21:00 +23°C° 0 mm 1 mps 755 mmHg 69%
22:00 +22°C° 0 mm 1 mps 755 mmHg 71%
23:00 +22°C° 0 mm 1 mps 755 mmHg 72%

Day after tomorrow, 17 April, Saturday

Time Temperature Precipitation Wind Pressure Humidity
00:00 +21°C° 0 mm 1 mps 755 mmHg 71%
01:00 +21°C° 0 mm 1 mps 755 mmHg 69%
02:00 +21°C° 0 mm 1 mps 754 mmHg 67%
03:00 +20°C° 0 mm 1 mps 754 mmHg 66%
04:00 +20°C° 0 mm 1 mps 754 mmHg 64%
05:00 +20°C° 0 mm 1 mps 754 mmHg 62%
06:00 +22°C° 0 mm 1 mps 755 mmHg 53%
07:00 +25°C° 0 mm 1 mps 755 mmHg 44%
08:00 +28°C° 0 mm 1 mps 755 mmHg 36%
09:00 +30°C° 0 mm 1 mps 755 mmHg 31%
10:00 +34°C° 0 mm 2 mps 754 mmHg 26%
11:00 +36°C° 0 mm 3 mps 754 mmHg 21%
12:00 +37°C° 0 mm 3 mps 754 mmHg 21%
13:00 +37°C° 0 mm 4 mps 753 mmHg 21%
14:00 +37°C° 0 mm 5 mps 753 mmHg 21%
15:00 +36°C° 0 mm 4 mps 753 mmHg 24%
16:00 +34°C° 0 mm 4 mps 753 mmHg 27%
17:00 +33°C° 0 mm 3 mps 754 mmHg 31%
18:00 +29°C° 0 mm 2 mps 754 mmHg 42%
19:00 +26°C° 0 mm 1 mps 755 mmHg 53%
20:00 +21°C° 0 mm 0 mps 756 mmHg 65%
21:00 +22°C° 0 mm 1 mps 756 mmHg 67%
22:00 +22°C° 0 mm 1 mps 756 mmHg 68%
23:00 +21°C° 0 mm 1 mps 756 mmHg 70%

18 April, Sunday

Time Temperature Precipitation Wind Pressure Humidity
00:00 +21°C° 0 mm 1 mps 756 mmHg 70%
01:00 +20°C° 0 mm 1 mps 755 mmHg 70%
02:00 +20°C° 0 mm 1 mps 755 mmHg 71%
03:00 +20°C° 0 mm 1 mps 755 mmHg 69%
04:00 +19°C° 0 mm 1 mps 755 mmHg 67%
05:00 +19°C° 0 mm 1 mps 755 mmHg 65%
06:00 +22°C° 0 mm 1 mps 756 mmHg 55%
07:00 +25°C° 0 mm 1 mps 756 mmHg 46%
08:00 +26°C° 0 mm 0 mps 756 mmHg 36%
09:00 +30°C° 0 mm 1 mps 756 mmHg 31%
10:00 +32°C° 0 mm 2 mps 756 mmHg 26%
11:00 +36°C° 0 mm 2 mps 755 mmHg 21%
12:00 +36°C° 0 mm 3 mps 755 mmHg 22%
13:00 +36°C° 0 mm 4 mps 754 mmHg 22%
14:00 +36°C° 0 mm 5 mps 754 mmHg 22%
15:00 +35°C° 0 mm 4 mps 754 mmHg 26%
16:00 +34°C° 0 mm 4 mps 754 mmHg 29%
17:00 +31°C° 0 mm 3 mps 754 mmHg 33%
18:00 +28°C° 0 mm 2 mps 755 mmHg 46%
19:00 +25°C° 0 mm 1 mps 755 mmHg 59%
20:00 +21°C° 0 mm 0 mps 756 mmHg 73%
21:00 +22°C° 0 mm 1 mps 756 mmHg 75%
22:00 +21°C° 0 mm 1 mps 757 mmHg 77%
23:00 +21°C° 0 mm 1 mps 757 mmHg 79%

19 April, Monday

Time Temperature Precipitation Wind Pressure Humidity
00:00 +21°C° 0 mm 1 mps 757 mmHg 78%
01:00 +20°C° 0 mm 1 mps 756 mmHg 78%
02:00 +20°C° 0 mm 1 mps 756 mmHg 77%
03:00 +19°C° 0 mm 1 mps 756 mmHg 74%
04:00 +19°C° 0 mm 1 mps 756 mmHg 71%
05:00 +19°C° 0 mm 1 mps 756 mmHg 67%
06:00 +22°C° 0 mm 1 mps 756 mmHg 57%
07:00 +24°C° 0 mm 1 mps 756 mmHg 47%
08:00 +27°C° 0 mm 1 mps 756 mmHg 37%
09:00 +30°C° 0 mm 1 mps 756 mmHg 31%
10:00 +32°C° 0 mm 2 mps 755 mmHg 25%
11:00 +36°C° 0 mm 2 mps 755 mmHg 19%
12:00 +36°C° 0 mm 3 mps 754 mmHg 20%
13:00 +36°C° 0 mm 4 mps 754 mmHg 22%
14:00 +37°C° 0 mm 5 mps 754 mmHg 23%
15:00 +35°C° 0 mm 5 mps 754 mmHg 27%
16:00 +34°C° 0 mm 4 mps 754 mmHg 31%
17:00 +32°C° 0 mm 4 mps 754 mmHg 35%
18:00 +28°C° 0 mm 2 mps 755 mmHg 47%
19:00 +25°C° 0 mm 1 mps 755 mmHg 60%
20:00 +21°C° 0 mm 0 mps 756 mmHg 72%
21:00 +22°C° 0 mm 1 mps 756 mmHg 74%
22:00 +22°C° 0 mm 1 mps 757 mmHg 77%
23:00 +21°C° 0 mm 1 mps 757 mmHg 79%

20 April, Tuesday

Time Temperature Precipitation Wind Pressure Humidity
00:00 +21°C° 0 mm 1 mps 757 mmHg 79%
01:00 +20°C° 0 mm 1 mps 756 mmHg 79%
02:00 +20°C° 0 mm 1 mps 756 mmHg 79%
03:00 +20°C° 0 mm 1 mps 756 mmHg 77%
04:00 +19°C° 0 mm 1 mps 756 mmHg 74%
05:00 +19°C° 0 mm 1 mps 756 mmHg 72%
06:00 +22°C° 0 mm 1 mps 756 mmHg 60%
07:00 +25°C° 0 mm 1 mps 756 mmHg 49%
08:00 +28°C° 0 mm 1 mps 756 mmHg 38%
09:00 +30°C° 0 mm 1 mps 756 mmHg 32%
10:00 +34°C° 0 mm 2 mps 756 mmHg 27%
11:00 +37°C° 0 mm 2 mps 755 mmHg 21%
12:00 +37°C° 0 mm 3 mps 755 mmHg 22%
13:00 +37°C° 0 mm 4 mps 754 mmHg 23%
14:00 +37°C° 0 mm 5 mps 754 mmHg 24%
15:00 +36°C° 0 mm 5 mps 754 mmHg 28%
16:00 +34°C° 0 mm 4 mps 754 mmHg 31%
17:00 +33°C° 0 mm 4 mps 754 mmHg 35%
18:00 +29°C° 0 mm 3 mps 755 mmHg 47%
19:00 +26°C° 0 mm 1 mps 756 mmHg 59%
20:00 +21°C° 0 mm 0 mps 757 mmHg 71%
21:00 +22°C° 0 mm 1 mps 757 mmHg 73%
22:00 +22°C° 0 mm 1 mps 757 mmHg 75%
23:00 +21°C° 0 mm 1 mps 757 mmHg 77%
Show more